Total_Precipitation_Accumulation
0.75 0.64 0.73 0.74 0.61 0.69 1.00 0.93 0.85 0.62 0.58 0.66 0.65 0.67 0.65 0.60 0.53 0.47 0.46 0.44 0.41 0.42 0.42 0.45 0.46 0.53 0.65 0.77 0.84 0.98 1.11 1.14 1.12 1.08 1.03 1.02 1.04 1.01 1.02 1.04 1.10 1.17 1.16 1.09
0.78 0.48 0.50 0.55 0.46 0.52 0.63 0.58 0.57 0.48 0.56 0.52 0.51 0.54 0.56 0.51 0.45 0.40 0.41 0.40 0.36 0.33 0.33 0.36 0.38 0.41 0.51 0.66 0.76 0.86 0.98 1.05 1.07 1.06 1.02 0.99 0.97 0.96 0.93 0.95 1.02 1.10 1.14 1.15
0.92 0.49 0.56 0.65 0.54 0.53 0.59 0.55 0.53 0.61 0.58 0.41 0.41 0.50 0.60 0.55 0.44 0.40 0.40 0.39 0.36 0.34 0.32 0.32 0.33 0.40 0.50 0.61 0.67 0.72 0.80 0.88 0.94 0.95 0.97 0.97 0.96 0.99 1.03 1.05 1.07 1.15 1.21 1.24
1.04 0.78 0.93 0.70 0.46 0.44 0.52 0.55 0.50 0.52 0.44 0.39 0.44 0.47 0.51 0.53 0.48 0.42 0.36 0.34 0.34 0.35 0.33 0.31 0.32 0.37 0.48 0.61 0.70 0.76 0.82 0.85 0.85 0.90 0.95 0.99 1.05 1.13 1.21 1.27 1.27 1.32 1.39 1.40
1.08 0.84 0.56 0.36 0.28 0.39 0.51 0.58 0.47 0.42 0.35 0.31 0.33 0.39 0.43 0.41 0.42 0.43 0.37 0.35 0.36 0.38 0.38 0.37 0.38 0.39 0.46 0.60 0.70 0.78 0.85 0.91 0.92 0.99 1.07 1.12 1.23 1.29 1.32 1.40 1.39 1.34 1.33 1.32
1.12 0.91 0.52 0.36 0.18 0.21 0.38 0.60 0.35 0.30 0.32 0.29 0.29 0.42 0.45 0.41 0.43 0.44 0.40 0.38 0.39 0.39 0.37 0.40 0.45 0.47 0.55 0.67 0.78 0.87 0.95 1.05 1.06 1.08 1.15 1.18 1.22 1.20 1.17 1.17 1.15 1.10 1.06 1.02
0.90 0.86 0.48 0.32 0.14 0.14 0.47 0.61 0.35 0.33 0.35 0.34 0.40 0.47 0.43 0.38 0.41 0.43 0.45 0.47 0.48 0.47 0.50 0.56 0.61 0.66 0.75 0.86 0.98 1.05 1.06 1.12 1.10 1.06 1.07 1.06 1.01 0.96 0.89 0.85 0.81 0.78 0.77 0.74
0.65 0.91 0.64 0.32 0.22 0.42 0.59 0.39 0.32 0.31 0.32 0.33 0.32 0.30 0.30 0.30 0.34 0.37 0.41 0.45 0.50 0.56 0.59 0.61 0.70 0.80 0.89 1.00 1.06 1.01 0.97 0.95 0.89 0.80 0.77 0.73 0.72 0.73 0.72 0.69 0.71 0.69 0.66 0.65
0.63 0.72 0.60 0.45 0.46 0.48 0.41 0.36 0.31 0.32 0.30 0.29 0.30 0.30 0.30 0.29 0.30 0.32 0.33 0.35 0.39 0.47 0.53 0.53 0.59 0.64 0.72 0.74 0.72 0.70 0.69 0.69 0.68 0.64 0.61 0.61 0.62 0.65 0.68 0.67 0.68 0.67 0.65 0.67
0.55 0.53 0.45 0.40 0.36 0.33 0.30 0.32 0.30 0.28 0.26 0.25 0.30 0.28 0.27 0.27 0.27 0.29 0.30 0.31 0.32 0.35 0.40 0.43 0.45 0.48 0.51 0.51 0.51 0.53 0.57 0.61 0.63 0.64 0.60 0.60 0.61 0.62 0.67 0.71 0.72 0.70 0.69 0.69
0.48 0.40 0.34 0.31 0.28 0.30 0.27 0.23 0.23 0.22 0.21 0.23 0.25 0.24 0.25 0.26 0.28 0.28 0.29 0.29 0.31 0.37 0.42 0.47 0.46 0.47 0.49 0.52 0.54 0.57 0.59 0.64 0.67 0.69 0.66 0.64 0.64 0.66 0.70 0.75 0.83 0.92 0.90 0.84
0.56 0.41 0.41 0.38 0.29 0.26 0.25 0.26 0.27 0.27 0.26 0.24 0.26 0.29 0.29 0.30 0.31 0.31 0.31 0.30 0.31 0.34 0.41 0.47 0.47 0.48 0.50 0.54 0.60 0.63 0.62 0.63 0.67 0.70 0.71 0.70 0.65 0.65 0.70 0.73 0.77 0.81 0.84 0.87
0.45 0.31 0.29 0.28 0.23 0.22 0.25 0.28 0.30 0.29 0.29 0.30 0.30 0.31 0.33 0.35 0.35 0.34 0.33 0.33 0.37 0.39 0.42 0.46 0.47 0.49 0.54 0.56 0.60 0.65 0.68 0.68 0.68 0.70 0.73 0.74 0.70 0.68 0.70 0.73 0.76 0.76 0.76 0.79
0.25 0.24 0.26 0.23 0.26 0.25 0.26 0.29 0.28 0.29 0.30 0.32 0.33 0.33 0.33 0.34 0.33 0.34 0.39 0.43 0.43 0.42 0.41 0.41 0.42 0.45 0.51 0.53 0.57 0.62 0.65 0.69 0.71 0.70 0.75 0.79 0.79 0.76 0.72 0.72 0.71 0.69 0.71 0.78
0.22 0.26 0.32 0.30 0.27 0.26 0.25 0.24 0.25 0.26 0.26 0.28 0.30 0.33 0.34 0.36 0.38 0.40 0.42 0.42 0.39 0.37 0.37 0.37 0.37 0.42 0.46 0.50 0.54 0.59 0.64 0.69 0.72 0.73 0.75 0.80 0.84 0.86 0.82 0.76 0.74 0.70 0.67 0.73
0.27 0.25 0.27 0.29 0.29 0.28 0.26 0.26 0.28 0.30 0.30 0.30 0.32 0.35 0.37 0.38 0.38 0.38 0.39 0.39 0.38 0.40 0.40 0.38 0.40 0.42 0.43 0.47 0.51 0.55 0.62 0.75 0.80 0.80 0.80 0.82 0.83 0.84 0.85 0.81 0.78 0.73 0.72 0.78
0.40 0.37 0.34 0.34 0.33 0.32 0.33 0.35 0.37 0.37 0.35 0.34 0.35 0.35 0.34 0.32 0.31 0.33 0.35 0.36 0.37 0.40 0.39 0.40 0.43 0.41 0.41 0.44 0.51 0.55 0.60 0.67 0.76 0.75 0.75 0.80 0.83 0.85 0.88 0.88 0.83 0.77 0.76 0.84
0.48 0.50 0.47 0.46 0.43 0.41 0.39 0.37 0.37 0.37 0.37 0.37 0.35 0.33 0.33 0.32 0.34 0.35 0.36 0.34 0.32 0.32 0.36 0.41 0.43 0.39 0.37 0.41 0.47 0.52 0.56 0.60 0.66 0.70 0.73 0.79 0.86 0.87 0.87 0.87 0.84 0.79 0.76 0.80
0.43 0.45 0.45 0.45 0.45 0.43 0.43 0.44 0.43 0.41 0.39 0.37 0.35 0.36 0.36 0.37 0.38 0.39 0.36 0.33 0.33 0.36 0.38 0.39 0.43 0.39 0.39 0.43 0.49 0.51 0.55 0.58 0.61 0.64 0.69 0.77 0.80 0.77 0.79 0.81 0.82 0.80 0.79 0.79
0.42 0.43 0.43 0.44 0.43 0.42 0.44 0.44 0.41 0.39 0.39 0.37 0.36 0.36 0.37 0.38 0.38 0.37 0.34 0.35 0.41 0.45 0.42 0.41 0.40 0.39 0.41 0.44 0.51 0.53 0.54 0.57 0.60 0.63 0.67 0.72 0.74 0.74 0.73 0.75 0.76 0.77 0.77 0.79
0.44 0.43 0.42 0.44 0.45 0.43 0.43 0.41 0.39 0.41 0.40 0.38 0.38 0.39 0.39 0.39 0.36 0.34 0.32 0.34 0.37 0.37 0.37 0.37 0.36 0.37 0.44 0.55 0.60 0.55 0.53 0.57 0.61 0.66 0.69 0.71 0.71 0.71 0.70 0.70 0.71 0.72 0.74 0.75
0.43 0.43 0.44 0.43 0.40 0.41 0.41 0.40 0.39 0.40 0.39 0.40 0.39 0.38 0.37 0.36 0.34 0.31 0.32 0.37 0.38 0.40 0.39 0.36 0.38 0.48 0.63 0.70 0.62 0.56 0.57 0.59 0.62 0.66 0.69 0.70 0.71 0.69 0.66 0.67 0.69 0.69 0.69 0.70
0.38 0.39 0.40 0.41 0.41 0.40 0.38 0.38 0.38 0.37 0.38 0.39 0.41 0.42 0.40 0.38 0.36 0.37 0.40 0.37 0.37 0.40 0.41 0.41 0.49 0.61 0.70 0.65 0.55 0.54 0.57 0.59 0.61 0.62 0.65 0.65 0.66 0.66 0.66 0.64 0.64 0.64 0.65 0.66
0.30 0.29 0.30 0.31 0.28 0.27 0.29 0.31 0.31 0.31 0.33 0.34 0.36 0.37 0.37 0.36 0.34 0.35 0.39 0.40 0.40 0.42 0.41 0.44 0.53 0.59 0.60 0.53 0.49 0.50 0.52 0.54 0.55 0.56 0.57 0.57 0.57 0.58 0.59 0.60 0.59 0.58 0.58 0.59
0.22 0.21 0.19 0.19 0.20 0.22 0.24 0.24 0.23 0.23 0.24 0.27 0.29 0.29 0.31 0.34 0.38 0.37 0.36 0.36 0.37 0.38 0.38 0.39 0.43 0.45 0.44 0.43 0.44 0.46 0.47 0.51 0.55 0.58 0.56 0.54 0.53 0.53 0.53 0.52 0.54 0.54 0.54 0.55
0.17 0.16 0.16 0.16 0.18 0.19 0.19 0.19 0.20 0.21 0.22 0.24 0.27 0.28 0.30 0.32 0.34 0.36 0.36 0.35 0.34 0.36 0.36 0.37 0.36 0.37 0.38 0.38 0.40 0.41 0.42 0.44 0.46 0.48 0.48 0.49 0.50 0.51 0.50 0.49 0.49 0.50 0.51 0.52
0.15 0.15 0.14 0.13 0.14 0.15 0.17 0.18 0.20 0.22 0.24 0.28 0.31 0.29 0.31 0.32 0.33 0.33 0.33 0.32 0.32 0.33 0.34 0.34 0.35 0.36 0.36 0.37 0.37 0.37 0.38 0.39 0.42 0.43 0.44 0.45 0.47 0.48 0.48 0.48 0.49 0.49 0.51 0.50